Oklahoma City Wiley Post, OK

4:16 PM CST on November 19, 2017 (GMT -0600)
Wiley Post

Weather History for KPWA - January, 2013

Change the Weather History Date:

Friday, January 4, 2013

  Actual Average Record
Temperature  
Mean Temperature 33 °F -  
Max Temperature 45 °F 38 °F 68 °F (1955)
Min Temperature 21 °F 18 °F -2 °F (1959)
Degree Days  
Heating Degree Days 32    
Moisture  
Dew Point 22 °F    
Average Humidity 61    
Maximum Humidity 81    
Minimum Humidity 40    
Precipitation  
Precipitation 0.00 in - - ()
Sea Level Pressure  
Sea Level Pressure 30.41 in    
Wind  
Wind Speed 6 mph (SSW)    
Max Wind Speed 15 mph    
Max Gust Speed -    
Visibility 9 miles    
Events      
Averages and records for this station are not official NWS values.
T = Trace of Precipitation, MM = Missing Value Source: NWS Daily Summary

Daily Weather History Graph

Daily Weather History Graph

Search for Another Location

Airport or City:

Trip Planner

Search our weather history database for the weather conditions in past years. The results will help you decide how hot, cold, wet, or windy it might be!

Date:

Astronomy

Jan. 04, 2013 Rise Set
Actual Time 7:40 AM CST 5:31 PM CST
Civil Twilight 7:12 AM CST 5:59 PM CST
Nautical Twilight 6:40 AM CST 6:31 PM CST
Astronomical Twilight 6:09 AM CST 7:02 PM CST
Moon No Moon Rise 11:40 AM CST (1/4)
Length of Visible Light 10h 47m
Length of Day
9h 50m
Waning Gibbous, 55% of the Moon is Illuminated
Jan 4
Waning Gibbous
Jan 4
Last Quarter
Jan 11
New
Jan 18
First Quarter
Jan 26
Full

Hourly Weather History & Observations

Time (CST) Temp. Windchill Dew Point Humidity Pressure Visibility Wind Dir Wind Speed Gust Speed Precip Events Conditions
12:53 AM 21.0 °F - 16.0 °F 81% 30.48 in 8.0 mi Calm Calm - N/A   Clear
1:53 AM 23.0 °F - 17.1 °F 78% 30.46 in 7.0 mi Calm Calm - N/A   Clear
2:53 AM 23.0 °F - 18.0 °F 81% 30.46 in 7.0 mi Calm Calm - N/A   Clear
3:53 AM 21.0 °F 16.2 °F 16.0 °F 81% 30.47 in 8.0 mi SW 3.5 mph - N/A   Clear
4:53 AM 23.0 °F 17.0 °F 18.0 °F 81% 30.47 in 8.0 mi South 4.6 mph - N/A   Clear
5:53 AM 24.8 °F 20.5 °F 17.6 °F 74% 30.43 in 8.0 mi SW 3.5 mph - N/A   Clear
6:53 AM 26.6 °F 22.6 °F 19.4 °F 74% 30.43 in 10.0 mi South 3.5 mph - N/A   Clear
7:53 AM 27.0 °F 21.6 °F 19.9 °F 75% 30.47 in 9.0 mi SSW 4.6 mph - N/A   Clear
8:53 AM 30.0 °F 21.7 °F 23.0 °F 75% 30.49 in 9.0 mi SSW 9.2 mph - N/A   Clear
9:53 AM 36.0 °F 27.5 °F 24.1 °F 62% 30.49 in 10.0 mi SSW 12.7 mph - N/A   Clear
10:53 AM 39.0 °F 31.8 °F 23.0 °F 53% 30.48 in 10.0 mi SSW 11.5 mph - N/A   Clear
11:53 AM 42.1 °F 34.9 °F 24.1 °F 49% 30.45 in 10.0 mi SW 13.8 mph - N/A   Overcast
12:53 PM 43.0 °F 35.7 °F 23.0 °F 45% 30.43 in 10.0 mi SSW 15.0 mph - N/A   Overcast
1:53 PM 43.0 °F 36.0 °F 23.0 °F 45% 30.40 in 10.0 mi SSW 13.8 mph - N/A   Overcast
2:53 PM 45.0 °F 38.5 °F 23.0 °F 42% 30.38 in 10.0 mi SSW 13.8 mph - N/A   Overcast
3:53 PM 45.0 °F 39.7 °F 21.9 °F 40% 30.37 in 10.0 mi SW 10.4 mph - N/A   Overcast
4:53 PM 44.1 °F 39.0 °F 25.0 °F 47% 30.36 in 10.0 mi SSW 9.2 mph - N/A   Overcast
5:53 PM 42.1 °F 37.1 °F 25.0 °F 51% 30.36 in 10.0 mi SSW 8.1 mph - N/A   Overcast
6:53 PM 42.8 °F 38.0 °F 24.8 °F 49% 30.33 in 10.0 mi SSW 8.1 mph - N/A   Overcast
7:53 PM 41.0 °F 34.7 °F 25.0 °F 53% 30.36 in 10.0 mi South 10.4 mph - N/A   Overcast
8:53 PM 39.9 °F 34.5 °F 25.0 °F 55% 30.34 in 10.0 mi South 8.1 mph - N/A   Overcast
9:53 PM 39.9 °F 33.4 °F 26.1 °F 58% 30.33 in 10.0 mi South 10.4 mph - N/A   Overcast
10:53 PM 39.9 °F 32.9 °F 26.1 °F 58% 30.31 in 10.0 mi South 11.5 mph - N/A   Overcast
11:53 PM 39.9 °F 32.9 °F 26.1 °F 58% 30.30 in 10.0 mi South 11.5 mph - N/A   Overcast